GFSFLT2_sfc_thetae_057.txt.gz
Theta_e
310 310 311 311 312 314 314 317 317 318 319 321 327 329 331 332 334 338 343 343 345 347 347 347 349 352 353 354 350 348 350 350
310 309 310 311 311 312 314 316 318 319 320 320 323 329 331 332 335 337 339 341 342 343 348 347 348 349 349 350 350 352 351 351
308 309 310 310 310 311 313 316 318 320 319 319 322 328 329 328 331 335 338 341 341 341 343 345 350 349 346 352 352 353 352 350
307 307 308 309 309 311 313 315 316 320 318 319 322 323 325 329 334 336 340 342 343 344 344 345 349 343 318 320 343 351 348 346
306 306 306 308 309 310 310 312 317 316 317 318 319 322 323 325 328 332 338 344 348 348 347 348 350 351 312 315 322 349 347 348
306 306 307 306 309 308 310 313 314 316 315 317 317 320 322 324 330 332 340 346 349 351 352 352 353 342 308 310 317 347 345 344
306 307 308 307 306 310 309 311 313 313 315 315 316 318 321 325 328 334 342 346 348 351 352 352 348 336 305 310 324 343 341 340
305 305 307 306 309 311 310 310 312 313 314 315 317 319 323 328 332 338 343 348 349 349 347 350 330 339 302 307 320 337 338 335
305 306 306 308 310 309 310 311 312 314 316 317 318 321 327 331 338 342 344 347 341 341 342 341 341 335 322 302 305 336 334 334
304 303 304 306 309 310 310 311 315 316 316 316 318 324 329 333 338 341 342 337 337 339 340 337 337 333 313 304 305 311 320 334
303 303 304 306 308 307 307 310 313 316 316 317 319 328 328 335 338 332 333 336 336 335 335 334 332 332 329 301 300 303 307 336
302 303 302 304 308 311 312 312 314 315 314 316 323 325 327 332 333 334 336 336 336 333 332 329 330 331 330 331 327 326 310 319
300 300 301 304 308 308 309 312 314 315 316 323 325 327 329 329 321 329 335 338 330 332 332 330 328 328 328 321 323 330 332 322
299 300 301 302 306 311 314 318 317 316 318 324 326 327 322 323 323 317 299 301 300 300 308 322 322 305 299 301 299 299 302 304
298 299 300 302 305 308 313 314 317 318 320 325 324 322 326 326 326 322 319 311 299 295 297 298 302 299 297 297 297 298 297 302
310 317 311 304 306 310 313 318 320 324 323 312 329 329 328 327 326 325 327 325 324 321 300 303 295 295 295 297 298 305 322 321
319 316 312 311 312 315 321 320 325 324 325 327 328 330 326 321 327 327 325 325 321 313 311 302 299 295 296 298 299 322 319 319
317 321 322 322 321 325 327 329 329 327 326 310 318 327 324 325 326 325 322 320 319 318 314 310 311 313 318 321 324 323 322 319
318 320 327 327 326 327 328 328 327 325 325 322 314 327 327 326 325 324 323 322 320 318 318 313 296 318 316 314 316 320 318 319
313 320 313 322 326 329 328 329 329 325 327 328 328 326 327 325 324 322 321 319 317 312 309 303 292 313 311 311 311 312 317 320

GFSFLT2_sfc_thetae_060.txt.gz
Theta_e
310 311 310 311 312 313 313 315 315 318 320 321 325 326 329 329 330 331 332 333 335 339 341 342 345 347 349 353 354 351 348 347
309 311 312 313 313 313 313 314 314 314 317 318 320 327 329 331 332 330 329 330 332 337 340 342 344 344 348 352 352 347 347 349
309 310 313 314 313 314 314 314 313 314 315 318 321 327 329 328 327 328 328 329 333 335 337 341 342 345 347 349 348 347 349 348
308 309 310 311 312 311 312 312 313 316 317 317 318 321 322 325 325 328 328 328 330 335 337 338 341 343 324 323 339 348 350 347
306 308 309 311 311 312 312 312 313 313 313 315 317 318 319 321 323 324 326 330 330 332 338 339 340 344 309 315 323 349 348 346
305 308 309 310 311 311 313 312 311 311 311 313 315 317 317 319 321 323 325 328 331 334 338 341 341 341 308 310 320 347 345 345
306 307 307 309 310 310 310 310 309 308 310 311 313 314 316 317 318 323 326 327 329 335 338 342 342 330 307 310 330 345 342 343
303 307 307 305 308 310 309 308 309 309 310 311 314 315 316 316 319 323 325 329 333 335 337 343 329 333 303 309 329 341 339 337
306 306 305 307 308 309 306 307 307 311 312 313 314 316 317 317 320 325 327 329 333 333 337 341 340 331 317 304 312 338 335 334
304 302 302 304 306 307 306 306 309 310 312 313 314 316 317 317 321 324 327 331 332 334 336 337 337 332 309 303 310 313 322 331
302 301 301 303 305 306 305 307 310 311 312 312 314 317 315 318 320 323 328 332 331 333 333 332 330 326 317 301 301 307 312 330
300 300 300 301 303 305 305 308 310 309 310 313 314 315 316 319 321 324 327 330 330 331 332 329 329 326 326 322 319 316 308 312
297 297 298 299 303 304 306 308 308 309 310 312 313 314 315 316 320 322 328 332 331 333 331 329 327 326 327 320 324 329 329 319
293 295 296 297 300 302 305 308 310 310 310 310 312 315 317 319 315 309 300 305 305 306 310 323 320 312 305 301 300 302 304 305
295 296 297 297 299 301 304 307 311 309 311 312 314 313 319 319 319 316 314 307 299 297 301 304 307 304 297 297 300 300 298 309
302 306 302 300 300 302 305 309 311 315 318 307 317 323 322 320 322 323 324 320 317 312 297 299 295 296 296 297 298 306 320 320
306 303 302 301 301 303 308 310 314 318 319 321 326 325 326 324 327 326 324 319 314 312 311 303 298 295 296 298 302 324 324 324
308 305 305 305 305 309 313 318 319 320 322 308 317 325 325 327 325 321 318 318 317 315 312 312 314 316 320 321 323 322 322 321
314 314 315 316 318 319 319 322 317 325 326 325 312 326 325 324 322 319 319 318 315 314 314 310 296 319 317 320 321 320 319 319
303 306 302 311 317 321 321 327 326 327 327 327 325 324 323 323 322 322 319 317 315 312 309 303 296 315 314 314 316 316 318 319

GFSFLT2_sfc_thetae_063.txt.gz
Theta_e
303 307 305 304 304 306 306 306 307 307 308 308 310 313 314 316 318 320 319 320 323 325 327 329 333 337 339 347 348 348 348 347
305 307 305 306 306 306 306 306 306 307 307 306 307 311 315 318 319 321 322 323 323 324 326 329 334 337 339 340 343 347 349 345
306 304 304 305 306 306 308 307 307 307 310 309 308 311 315 319 320 322 324 324 324 324 324 325 329 334 338 339 345 347 347 341
305 306 305 305 305 306 306 306 306 308 308 309 311 312 314 313 317 317 320 321 322 323 323 326 328 332 321 317 331 345 339 340
302 302 302 304 304 305 305 306 308 307 307 309 309 310 311 314 315 317 316 316 320 321 322 323 327 332 316 312 315 344 340 338
300 300 301 301 303 304 305 306 307 307 306 307 308 308 309 312 314 312 312 315 316 322 324 325 325 330 315 308 311 341 338 337
300 302 301 301 302 303 304 305 306 306 305 305 307 308 308 310 310 310 311 315 317 318 322 326 330 332 309 305 311 338 335 335
301 302 301 301 301 302 303 304 304 304 305 306 306 308 309 309 309 310 311 313 317 319 322 326 324 331 311 302 314 337 334 333
302 302 301 302 303 303 303 304 303 305 306 307 308 308 309 310 311 312 310 314 318 319 322 324 328 330 314 305 309 335 333 331
299 299 299 301 302 302 301 301 304 306 307 307 308 308 309 311 310 311 313 314 315 317 320 323 327 320 309 304 309 319 319 330
299 298 298 300 302 302 301 302 304 306 306 306 307 308 310 310 310 309 310 313 316 318 321 323 325 319 314 304 305 307 310 327
297 297 297 298 301 301 302 303 305 305 306 306 307 308 309 310 312 311 311 314 316 319 321 323 324 318 316 315 314 312 305 308
294 295 296 297 298 299 302 304 305 304 305 306 306 307 308 309 310 312 314 316 316 318 322 326 322 320 319 316 317 321 320 315
291 291 292 294 297 297 300 303 304 305 304 304 305 307 309 310 310 310 297 296 297 301 304 321 325 312 305 305 304 303 302 305
293 294 294 294 294 296 299 302 305 306 305 307 309 307 309 311 312 313 312 302 298 300 303 304 308 307 299 301 302 301 299 309
303 303 305 299 296 296 299 301 304 305 308 302 309 310 311 312 314 316 314 315 313 309 300 306 299 297 298 299 298 305 318 315
302 300 300 299 297 297 301 303 302 305 308 311 310 314 316 315 318 319 317 314 310 308 308 301 298 297 297 297 304 321 320 318
306 302 300 300 300 302 304 305 307 307 312 306 307 318 318 318 319 317 316 317 316 315 313 311 314 316 318 319 318 318 317 317
304 303 304 309 305 307 307 308 314 314 315 315 306 317 319 319 318 317 316 315 315 315 315 308 297 320 319 318 317 318 317 317
297 300 298 300 308 317 319 318 317 316 316 321 321 320 320 318 317 316 315 314 312 311 310 304 297 318 317 317 317 317 317 318

GFSFLT2_sfc_thetae_069.txt.gz
Theta_e
305 303 301 302 303 301 301 302 304 305 304 304 304 305 306 307 308 309 310 311 313 315 318 319 322 325 327 328 332 334 333 334
304 305 303 303 304 305 302 302 303 304 306 306 306 305 306 306 308 310 311 313 313 313 314 316 319 320 321 323 324 325 330 333
302 303 305 305 304 304 305 304 303 303 303 302 302 302 304 307 309 312 313 315 316 316 316 317 318 320 321 320 320 321 324 329
298 302 303 304 304 305 305 305 304 304 303 303 305 306 308 308 309 309 309 310 311 312 314 317 317 320 312 310 313 318 322 324
297 298 299 299 300 302 303 305 305 304 303 304 306 306 306 306 306 306 306 306 307 308 309 311 313 314 308 306 308 314 319 321
296 297 298 299 298 300 301 303 304 304 304 305 306 306 306 306 305 304 303 303 304 305 306 308 310 314 306 304 305 311 316 320
298 299 299 300 301 301 301 300 301 302 303 304 305 306 305 305 305 305 302 303 303 304 306 308 308 311 306 304 306 316 318 320
297 297 299 300 300 301 299 298 299 299 301 302 305 306 305 304 305 304 302 303 305 306 305 306 309 312 306 303 306 315 316 320
297 297 296 297 298 299 298 298 298 300 302 303 304 305 305 305 304 304 303 302 303 304 306 308 310 312 313 303 300 313 318 321
297 296 296 298 298 298 297 297 300 301 302 303 303 303 303 305 303 303 302 302 303 303 305 307 310 312 305 304 300 299 307 319
295 295 295 297 296 296 296 298 299 301 301 301 302 303 304 304 303 302 301 302 304 304 306 307 309 313 314 304 302 300 298 305
293 291 291 291 294 296 297 298 299 299 300 301 301 301 302 303 304 304 303 304 304 305 305 306 309 312 314 314 314 316 303 306
291 290 289 289 292 294 296 297 299 299 299 300 300 301 301 302 303 304 305 306 306 306 307 309 309 311 313 310 310 317 318 312
293 295 295 294 293 293 295 296 299 299 299 300 301 302 303 303 303 304 297 298 298 298 299 305 312 303 300 297 297 297 299 300
295 298 297 297 299 294 295 296 298 299 298 299 301 302 304 304 305 304 303 300 296 295 293 293 294 300 296 296 295 295 296 300
298 298 296 295 294 294 296 298 298 301 301 298 303 303 305 305 304 304 305 304 304 305 298 295 294 293 294 295 294 298 307 310
299 300 297 296 295 295 297 299 299 301 301 303 304 305 304 303 304 305 306 306 307 306 305 298 295 293 293 294 296 317 319 318
295 296 298 298 297 298 299 299 300 301 303 300 301 305 306 305 306 306 307 307 307 307 303 304 302 302 303 305 312 320 318 317
295 296 294 296 301 301 301 302 302 305 305 305 301 307 306 308 308 307 308 309 308 309 306 303 294 309 310 314 318 318 318 318
292 293 293 293 298 301 304 303 305 305 305 306 307 305 309 310 310 311 313 310 308 310 308 302 291 319 318 317 316 315 314 315

GFSFLT2_sfc_thetae_072.txt.gz
Theta_e
300 301 302 304 304 304 303 303 305 306 307 306 305 306 306 307 308 309 311 312 313 316 319 320 322 324 325 327 329 331 332 333
297 298 301 304 305 306 305 305 304 305 307 306 305 306 306 307 309 311 313 315 315 316 317 319 320 321 323 324 324 326 327 330
296 296 298 302 305 305 306 305 304 304 304 306 307 308 307 308 309 311 313 315 316 318 318 319 320 321 321 323 323 324 324 324
296 297 298 301 301 301 304 305 305 305 305 304 305 305 306 307 309 312 313 314 315 316 317 317 317 318 310 308 315 320 322 323
296 297 297 298 299 300 300 303 305 305 304 305 307 307 308 309 310 310 310 310 310 310 311 313 314 315 306 304 306 316 318 319
296 296 297 298 299 299 300 301 302 302 302 303 305 306 307 308 307 307 307 307 307 308 308 310 311 312 305 303 304 315 316 318
296 298 299 300 300 301 300 301 301 301 301 302 303 305 306 306 306 306 305 305 305 306 308 309 310 311 303 301 304 315 317 320
299 299 299 299 300 300 298 298 299 299 300 301 302 304 304 305 306 306 305 306 306 307 308 308 307 309 302 301 304 313 317 320
298 298 297 298 299 299 297 297 297 299 301 301 301 303 303 305 306 306 305 304 306 306 307 307 308 309 310 301 301 311 316 319
295 295 295 296 297 297 296 297 298 299 299 300 300 302 303 304 305 305 305 304 304 304 304 305 308 311 302 302 299 298 308 317
294 294 294 295 296 297 295 297 299 299 299 299 300 302 303 304 304 304 303 303 303 303 304 305 306 310 312 300 298 298 298 306
291 291 290 291 293 295 296 298 298 298 298 298 299 300 301 303 304 303 303 302 303 304 305 305 307 308 311 314 313 309 302 305
291 290 291 291 292 293 294 295 297 296 296 297 298 300 300 301 302 303 304 305 304 305 305 307 306 307 310 308 310 317 318 313
292 293 295 297 297 296 294 294 295 295 296 297 298 300 301 301 302 303 296 299 298 297 298 305 310 303 300 297 296 296 296 297
293 295 298 296 295 298 297 295 296 296 296 298 298 298 299 300 301 301 301 301 295 294 294 294 294 298 295 295 294 293 293 296
295 298 298 296 295 294 296 297 297 297 298 297 300 301 302 303 304 304 305 304 304 305 297 297 293 293 293 292 293 294 307 301
295 297 297 298 296 295 297 297 297 297 300 300 301 302 303 304 306 306 306 306 306 305 306 297 296 292 292 292 292 308 312 312
292 294 294 296 298 298 300 299 299 301 301 298 300 304 304 305 305 305 306 305 305 305 305 307 305 299 301 301 302 308 315 318
292 294 293 293 297 301 300 301 301 302 303 302 299 305 305 304 305 305 304 304 306 306 307 306 295 307 308 307 307 313 319 318
290 291 291 292 295 296 302 302 304 305 305 305 304 304 305 306 307 306 306 308 309 309 309 305 289 306 309 310 314 318 319 319

GFSFLT2_sfc_thetae_075.txt.gz
Theta_e
304 304 304 306 308 313 314 316 318 318 316 317 320 321 323 325 325 326 325 325 325 325 325 327 328 328 330 332 331 330 331 331
302 303 304 305 308 311 311 313 315 316 315 317 318 319 320 322 323 323 323 323 323 324 325 325 326 328 327 328 329 329 330 329
301 302 303 304 306 308 307 308 311 313 313 315 318 321 321 320 320 321 322 323 324 324 325 326 327 328 326 329 330 330 330 329
300 301 303 303 304 306 306 306 306 308 309 312 313 315 317 319 319 320 322 323 325 325 325 326 326 322 309 311 317 323 323 325
300 301 302 304 304 306 305 306 307 306 306 307 308 312 313 315 317 318 321 323 325 325 324 322 322 322 307 306 307 320 321 323
300 301 303 304 305 305 307 307 306 306 306 306 307 308 310 314 315 317 320 322 322 320 320 320 320 319 305 303 304 319 319 320
302 303 306 306 305 305 305 305 305 305 304 306 307 307 308 310 313 317 319 319 319 318 318 318 318 318 302 300 306 316 315 317
301 301 302 302 303 305 306 304 304 304 305 305 307 308 308 309 312 313 317 317 317 315 316 317 312 317 302 299 306 313 314 315
300 298 297 299 301 301 300 301 303 304 305 305 306 307 308 310 313 314 315 314 314 315 314 316 317 315 315 298 298 314 313 314
297 295 294 296 298 297 296 297 301 302 304 304 305 307 307 306 311 312 312 313 312 313 313 313 313 316 303 300 298 298 307 316
294 292 292 293 294 295 294 296 298 300 302 304 304 306 305 306 307 308 307 311 309 309 308 309 310 312 315 298 297 296 297 306
291 291 290 291 293 293 293 295 297 297 299 302 303 303 304 305 305 306 307 308 308 308 308 308 309 311 312 313 314 314 301 304
291 291 292 293 295 296 295 295 295 296 297 298 301 301 301 303 305 307 307 312 309 308 309 309 309 309 310 306 307 313 315 313
292 293 294 296 297 296 297 297 295 295 295 297 298 299 299 300 303 305 297 299 298 297 299 306 310 302 299 298 298 296 295 297
293 294 296 298 296 296 298 298 296 295 295 297 298 297 299 300 303 303 303 301 295 295 295 297 297 300 296 294 294 293 293 295
294 295 297 298 297 295 296 296 296 295 296 295 298 298 299 301 303 304 305 305 304 306 296 297 293 293 292 293 293 294 310 301
293 294 295 295 298 297 298 298 297 297 297 299 301 300 301 302 305 305 305 306 306 307 309 297 298 294 293 291 291 306 315 317
290 291 293 292 295 299 300 299 297 298 300 296 298 303 304 304 305 305 306 307 307 308 308 309 311 300 302 303 302 307 312 317
290 292 291 291 293 295 301 302 299 300 302 302 298 304 305 305 306 306 308 307 308 307 308 309 297 307 311 311 313 313 314 316
290 290 289 290 292 297 301 304 305 305 305 305 305 305 306 305 307 308 308 306 305 308 309 307 290 306 312 312 313 315 315 317

GFSFLT2_sfc_thetae_078.txt.gz
Theta_e
307 309 309 310 311 313 315 318 319 323 326 328 330 330 330 331 331 332 331 329 328 327 327 327 327 329 333 334 331 331 332 331
305 308 308 309 310 311 313 314 316 317 320 322 324 326 328 328 329 329 328 327 326 326 327 326 326 327 329 330 329 331 331 330
305 306 307 308 309 310 311 312 313 312 314 317 321 324 324 326 328 328 327 326 325 325 325 325 325 326 325 327 328 329 331 330
303 304 306 307 308 309 310 311 312 312 309 312 313 319 323 324 325 326 326 325 325 324 324 323 325 323 311 316 325 330 330 329
303 304 306 307 308 310 309 310 311 311 309 309 313 313 315 321 323 324 325 326 330 328 326 326 327 327 307 308 310 327 325 325
302 303 303 306 306 308 309 311 310 310 310 307 308 311 312 315 320 323 327 327 330 330 330 329 329 326 304 303 306 323 323 324
300 303 301 306 304 306 308 308 309 309 309 308 308 308 309 311 317 321 324 327 329 330 328 328 327 325 302 301 308 320 321 322
300 299 301 301 302 304 303 304 306 307 308 309 310 310 310 310 313 320 323 325 326 325 326 326 318 324 300 299 306 316 318 318
298 298 298 298 299 302 299 300 302 305 306 308 311 312 312 315 318 319 321 321 322 324 323 324 324 321 319 299 298 316 316 316
295 294 294 296 297 297 296 294 298 302 303 304 306 311 311 311 315 316 317 320 319 320 320 319 320 322 307 300 298 299 308 316
293 292 292 293 294 294 292 295 296 298 301 302 304 308 310 311 313 313 313 317 314 314 314 315 316 317 320 300 298 297 297 310
292 292 292 292 293 293 293 294 296 296 297 299 302 304 306 310 310 311 311 312 313 313 314 313 314 315 316 318 316 313 300 306
293 292 293 294 296 297 298 297 296 295 295 297 300 302 304 304 308 310 310 315 311 312 314 314 314 314 315 310 311 317 318 311
292 292 294 295 298 299 298 298 298 296 294 296 298 300 301 303 304 307 299 298 297 297 297 307 314 302 298 298 299 298 297 293
292 293 294 296 296 297 297 298 299 296 295 296 298 298 299 301 303 303 304 302 296 295 297 297 298 299 296 296 294 293 293 297
293 293 295 293 295 297 297 297 297 297 297 296 299 298 299 300 302 303 304 306 305 308 296 299 295 293 293 293 293 295 309 303
291 292 292 291 294 296 299 298 297 296 297 298 299 300 300 301 303 302 303 305 306 308 309 298 298 292 292 292 293 311 312 313
288 289 290 290 293 297 300 300 299 298 299 296 298 303 302 301 302 301 304 307 307 307 308 307 310 305 305 306 305 309 312 314
289 290 289 290 290 299 303 303 303 303 303 301 297 303 302 302 302 304 305 306 305 306 308 309 298 311 309 311 312 312 313 315
288 288 288 289 291 296 305 305 305 305 304 305 305 305 305 304 305 307 307 307 309 309 310 306 290 313 313 313 313 314 315 316

GFSFLT2_sfc_thetae_084.txt.gz
Theta_e
309 309 310 309 310 312 312 313 312 314 316 316 321 321 325 327 331 337 342 342 344 333 328 325 322 324 325 329 339 343 343 345
306 306 306 308 308 309 309 310 311 313 314 312 318 320 324 322 328 334 338 340 335 323 323 323 324 320 320 331 340 341 340 341
303 304 304 306 306 307 309 310 311 311 309 310 314 320 322 322 323 328 334 326 324 328 322 323 331 321 330 334 334 334 337 337
302 303 304 304 305 305 305 304 305 308 307 308 311 315 318 319 320 320 317 321 319 323 329 322 322 333 316 316 327 332 334 332
300 300 300 301 301 303 302 302 303 304 304 307 309 310 313 317 317 317 317 318 325 328 326 326 326 325 310 310 318 331 332 331
297 297 298 299 300 300 300 301 303 302 301 304 306 309 309 314 316 316 317 316 320 329 328 327 327 324 306 307 314 332 332 333
297 297 297 297 297 298 299 300 301 300 302 302 304 308 308 310 315 316 318 314 315 330 331 330 328 316 302 306 319 331 328 328
294 294 294 294 295 296 296 297 297 299 301 302 304 307 307 307 314 315 315 315 314 321 331 330 320 320 300 304 320 325 325 324
294 293 292 292 293 293 292 294 294 297 299 303 303 304 305 310 308 318 313 314 315 317 324 331 326 318 309 300 307 322 322 321
292 291 291 293 294 293 292 292 295 297 297 298 301 303 304 307 307 313 316 312 311 312 319 322 326 318 307 299 299 307 310 319
291 291 292 293 294 294 293 293 295 296 296 295 296 301 302 304 305 307 313 313 310 310 315 319 323 318 312 301 298 298 299 317
292 292 291 292 294 295 296 297 297 296 295 295 296 297 301 304 303 307 310 312 312 312 313 315 319 319 314 309 306 304 300 305
291 291 290 291 294 294 295 297 298 298 297 295 295 296 298 300 302 304 309 314 313 312 313 314 313 316 317 310 309 311 312 309
290 290 290 292 293 295 298 299 298 298 296 295 295 296 296 298 301 303 299 298 298 301 302 310 315 307 305 303 301 304 304 300
289 289 291 291 293 295 298 298 299 298 296 295 295 296 297 298 301 303 304 301 296 296 297 296 299 306 300 300 299 299 298 298
290 290 290 290 291 292 295 299 299 298 297 295 297 296 299 300 300 304 304 305 304 307 298 299 298 298 298 297 295 298 302 302
289 289 288 289 289 290 293 300 299 299 299 298 299 299 299 300 301 303 304 305 305 304 308 298 295 294 293 292 292 312 309 309
287 286 287 287 288 289 293 299 302 302 301 295 297 300 300 301 301 302 303 303 303 303 303 306 301 302 306 307 307 310 313 312
289 288 287 287 287 289 294 298 297 304 302 302 296 301 301 301 301 301 302 302 302 301 302 304 289 306 307 308 308 309 310 311
290 288 288 287 288 289 292 294 295 303 304 302 302 303 301 301 302 303 302 302 302 303 302 303 291 306 310 310 310 310 311 312

GFSFLT2_sfc_thetae_087.txt.gz
Theta_e
300 301 302 302 303 303 304 305 306 306 307 307 307 307 311 312 316 316 318 323 327 332 335 330 326 331 323 324 323 323 324 321
300 300 301 302 303 302 303 304 305 305 305 306 305 305 306 311 315 315 317 318 319 326 324 322 321 322 323 325 323 322 320 320
299 298 298 299 299 300 300 301 302 304 303 303 302 305 306 307 310 315 316 317 320 324 321 319 318 319 322 322 321 321 319 320
297 298 298 297 298 298 299 300 301 302 301 301 302 302 304 305 307 312 313 315 317 322 319 321 316 322 311 311 320 326 330 331
297 297 298 298 297 298 298 299 300 300 300 300 300 302 302 303 305 308 312 311 312 315 316 322 317 319 307 307 313 328 329 329
297 296 296 295 296 295 296 297 297 297 298 299 301 301 301 302 303 306 311 310 311 313 314 320 319 323 306 307 307 323 327 326
296 296 295 294 294 295 294 294 294 295 296 298 299 300 300 301 302 303 308 311 313 312 315 317 318 320 308 303 308 324 325 323
294 294 293 293 293 294 293 293 293 292 294 296 298 299 300 300 301 303 308 312 313 315 315 316 318 321 305 304 314 325 321 320
293 293 292 292 294 294 293 293 292 294 295 295 297 298 298 301 301 302 303 309 312 313 313 314 316 315 308 306 311 322 320 318
292 292 292 293 294 294 293 293 295 296 296 296 296 296 298 300 300 300 303 307 306 310 311 311 315 314 305 300 308 310 313 317
292 291 291 292 293 293 292 294 296 297 297 295 296 297 296 298 300 299 302 305 305 308 310 309 312 317 311 302 303 305 306 313
291 290 289 289 292 293 294 295 297 297 296 297 296 296 296 296 299 301 301 301 309 306 309 308 310 316 312 309 303 303 303 304
290 290 289 289 291 292 294 297 298 297 297 297 297 296 296 295 298 300 300 305 305 309 308 310 308 314 314 308 306 306 305 305
289 289 289 290 290 291 294 295 297 297 296 296 296 295 296 296 296 298 297 297 296 296 297 306 311 308 303 301 304 303 300 299
289 289 289 289 289 290 292 293 296 297 296 296 296 295 296 295 295 296 298 300 296 295 296 298 301 306 301 301 300 302 298 298
290 289 289 288 288 289 291 293 297 299 298 295 296 296 296 298 298 298 299 302 299 299 298 297 298 299 299 299 301 300 308 301
290 289 288 288 287 288 291 294 296 300 299 299 299 299 298 299 300 300 301 302 302 302 301 297 294 294 294 296 296 311 310 309
289 287 288 287 287 288 291 293 293 298 301 295 297 299 299 299 301 300 301 299 302 302 302 302 300 300 305 299 299 308 311 311
291 289 288 288 287 289 291 291 290 296 302 301 297 300 300 298 299 300 299 299 298 298 301 301 289 299 302 306 304 306 305 307
291 289 289 288 289 289 289 289 290 294 297 304 303 302 301 299 300 301 297 300 299 299 299 301 288 301 301 305 306 308 308 307

GFSFLT2_sfc_thetae_093.txt.gz
Theta_e
294 294 295 296 298 299 299 299 299 300 300 300 300 299 300 300 301 303 305 307 309 312 316 315 315 317 318 319 323 325 328 326
294 294 296 297 298 298 298 298 299 298 298 297 296 296 298 300 300 300 301 306 307 309 312 316 317 316 317 319 320 324 325 328
295 295 295 296 296 297 298 296 296 297 296 296 296 296 296 298 299 299 301 303 304 306 308 312 315 315 318 319 320 322 324 324
295 295 295 295 296 295 295 295 295 296 295 295 296 296 296 297 299 299 300 300 301 303 305 307 310 314 312 310 314 321 324 323
293 293 294 295 294 294 294 295 295 295 295 296 296 297 296 296 297 297 299 300 300 301 303 307 310 311 308 305 307 315 321 321
293 294 295 294 294 295 295 295 295 295 295 295 296 297 297 297 296 296 298 299 298 299 301 307 310 311 305 302 303 312 319 318
293 294 294 293 294 294 294 294 294 295 295 295 297 297 297 297 296 296 297 298 299 301 303 305 307 310 305 300 304 314 316 317
293 293 293 293 293 294 293 293 293 293 295 296 297 298 298 297 297 296 297 298 300 300 302 308 308 309 304 300 306 313 315 315
293 293 292 292 293 293 291 292 292 294 295 296 297 299 299 299 298 297 297 297 298 300 302 305 309 309 310 301 303 311 314 315
292 291 291 292 292 292 291 291 293 294 295 296 297 298 300 301 299 298 297 297 298 298 299 303 307 308 305 303 300 300 308 315
292 291 290 291 292 292 290 291 293 293 294 295 297 298 298 299 298 297 296 297 298 298 300 304 304 308 311 300 298 296 301 316
291 291 290 289 290 291 291 292 293 292 292 294 298 297 296 298 298 298 296 296 298 300 305 303 304 308 310 308 305 303 304 311
291 290 289 289 290 290 291 292 291 291 292 295 298 297 296 296 297 297 297 299 299 300 302 307 307 306 310 303 306 311 315 308
290 290 289 289 289 290 290 291 291 291 291 294 298 297 297 296 296 295 295 294 294 293 293 296 309 300 295 295 296 298 297 299
290 290 290 289 289 289 290 290 291 290 290 293 297 298 298 297 297 296 294 297 296 293 292 296 300 299 294 296 297 296 295 300
290 290 289 289 289 288 290 290 290 290 292 294 297 299 299 299 299 299 298 296 296 300 296 295 294 294 293 297 299 302 305 302
289 288 288 288 288 288 290 290 288 290 291 293 294 299 300 299 300 301 301 300 300 300 299 299 295 293 293 294 297 311 307 304
287 285 285 286 287 289 290 288 288 289 290 290 292 296 299 300 299 299 300 300 300 300 298 298 299 304 305 304 305 308 308 306
287 285 285 285 286 288 289 288 287 287 288 289 289 291 291 294 299 297 298 298 298 299 299 296 288 301 303 304 305 305 306 307
285 283 283 284 286 287 288 288 287 286 286 286 287 287 288 289 290 293 297 296 295 295 297 298 288 299 301 302 303 305 306 307

GFSFLT2_sfc_thetae_096.txt.gz
Theta_e
294 294 294 295 297 298 298 298 298 299 299 298 298 297 297 297 298 300 302 303 303 303 305 308 311 315 317 318 318 319 321 325
294 294 295 296 296 297 297 297 297 297 297 297 296 297 297 297 297 297 298 300 300 301 303 307 309 311 315 318 318 318 319 321
295 294 295 295 296 297 297 296 296 297 296 296 296 297 297 298 298 298 298 299 301 302 303 304 305 306 309 314 316 316 318 320
294 294 295 295 295 296 296 296 296 297 295 295 296 298 298 298 298 299 298 298 299 299 300 301 302 304 303 305 310 314 317 318
292 294 294 294 294 294 294 295 296 295 295 296 298 298 298 298 298 298 298 298 298 298 301 301 302 303 301 302 305 311 314 316
293 294 294 294 294 295 295 295 294 294 295 296 297 297 297 298 298 298 298 298 297 297 298 300 301 302 301 301 303 310 313 315
294 294 294 294 294 294 294 293 294 294 294 295 296 297 297 297 297 298 298 298 297 297 298 299 301 302 301 300 302 311 313 314
293 293 293 293 293 294 292 292 293 293 294 295 296 296 297 297 298 299 299 299 298 298 298 299 301 303 303 299 301 309 313 313
293 293 292 292 293 293 291 291 291 294 294 295 295 296 297 299 299 300 299 298 298 297 298 300 301 303 305 300 299 312 312 313
293 292 291 292 293 292 290 290 292 293 293 294 294 296 298 300 298 298 299 298 296 296 298 300 302 304 303 301 297 298 306 313
293 292 291 292 292 291 289 290 292 292 292 292 294 296 299 299 297 297 297 297 296 296 298 300 302 307 310 299 298 297 297 307
292 291 290 289 291 291 291 291 292 291 290 292 294 296 299 299 298 298 297 297 297 298 299 300 303 307 312 312 309 305 298 307
291 290 290 289 290 290 291 291 291 290 290 292 293 295 298 299 299 298 298 299 298 296 298 300 300 304 309 302 302 309 314 307
289 289 289 289 290 290 290 290 290 289 289 291 292 295 298 300 299 299 296 294 294 294 292 293 299 298 294 293 293 297 296 299
288 288 288 289 288 289 290 289 289 289 289 291 293 294 297 299 299 300 298 299 297 295 293 293 293 297 294 293 293 295 296 303
289 288 287 287 287 287 289 289 288 289 289 291 291 293 298 300 300 301 300 299 299 301 298 293 292 293 293 293 295 300 308 305
288 286 285 285 286 286 289 288 287 288 288 289 289 292 294 295 299 300 300 300 301 300 302 300 299 296 296 297 300 310 307 306
284 282 282 283 284 286 288 287 286 286 287 287 287 289 290 291 292 295 298 298 299 299 300 299 299 304 307 307 308 309 309 308
285 283 282 282 283 285 286 286 286 285 285 285 286 286 286 287 288 289 291 293 294 297 299 299 288 300 302 305 307 307 308 310
284 283 282 282 284 284 284 284 285 283 283 284 284 284 284 285 285 286 287 288 290 292 295 298 290 300 300 302 303 305 307 308

GFSFLT2_sfc_thetae_102.txt.gz
Theta_e
309 309 308 308 309 310 311 312 312 312 312 311 312 312 312 312 311 312 311 311 310 310 309 308 308 309 309 310 311 312 315 318
307 307 307 308 309 309 309 310 310 311 310 310 310 311 311 311 311 310 309 307 306 306 306 306 306 305 305 306 306 307 310 313
306 305 306 307 307 307 307 308 308 310 309 309 309 310 310 310 307 306 306 307 307 306 305 305 305 305 303 304 305 306 307 308
303 304 305 305 305 304 305 306 307 308 308 308 308 308 308 307 307 306 306 307 306 306 306 306 305 303 301 301 303 302 303 304
302 303 303 303 303 302 302 303 306 307 307 307 307 308 308 306 306 306 305 306 306 305 307 304 306 304 300 299 300 302 301 303
302 302 301 301 301 301 301 302 304 306 306 306 307 307 306 307 307 307 305 304 303 305 306 306 305 304 300 298 299 301 301 302
301 300 299 300 300 299 299 298 302 302 303 305 306 305 305 307 305 304 305 303 301 303 306 307 305 305 299 297 299 302 301 303
299 299 299 299 298 298 295 296 299 298 300 302 303 303 304 302 302 302 303 301 302 303 304 305 304 303 300 297 298 302 301 303
299 299 296 295 295 295 294 295 295 296 298 299 301 304 304 303 303 304 302 301 303 304 304 303 305 305 305 298 297 304 303 303
297 297 297 297 296 294 293 292 294 295 295 297 301 303 302 301 304 302 302 304 306 302 302 305 307 310 306 304 299 297 304 309
298 296 296 295 294 292 291 292 293 293 294 295 299 301 300 301 303 302 302 305 303 306 304 304 306 310 313 303 300 298 299 300
298 297 295 294 293 292 291 291 292 291 292 294 298 296 296 301 300 302 306 305 304 302 302 304 306 309 309 312 314 315 306 307
296 295 294 293 293 292 292 291 290 289 290 292 294 293 294 298 300 301 303 306 304 303 302 302 300 299 301 300 298 301 302 301
294 293 292 292 292 291 291 292 290 288 288 289 291 291 293 297 299 299 299 297 296 294 293 295 299 296 295 293 292 292 291 294
291 291 291 291 291 291 290 291 291 288 287 288 289 290 291 292 294 296 298 303 299 298 294 295 294 293 294 293 292 294 295 303
291 290 289 290 290 290 291 291 291 291 288 287 287 289 289 289 291 293 297 298 298 302 301 294 293 293 294 295 297 301 317 313
291 289 288 289 289 289 291 291 291 290 291 287 286 287 287 288 288 289 290 293 293 295 301 295 295 293 295 298 300 318 317 316
289 287 287 288 287 289 290 290 292 292 291 289 288 286 285 285 286 286 286 288 290 292 294 294 293 295 296 297 303 308 313 318
290 289 287 287 286 289 290 289 291 291 292 292 288 291 290 285 285 285 285 285 286 288 289 291 286 292 292 293 295 297 306 312
290 288 287 287 286 288 289 288 289 291 291 291 291 291 290 290 288 286 285 285 284 284 285 288 286 292 290 290 291 292 296 303

GFSFLT2_sfc_thetae_105.txt.gz
Theta_e
311 313 313 312 312 313 314 314 315 316 316 316 317 316 316 316 316 316 315 313 312 311 309 308 308 308 308 309 308 307 309 310
312 313 312 312 312 312 311 312 314 315 315 315 314 315 315 314 314 313 312 311 309 310 310 309 309 308 308 308 307 308 307 308
310 310 310 310 310 310 311 311 313 314 313 313 313 314 314 313 312 311 311 311 310 310 309 309 309 307 307 307 308 307 306 305
308 308 308 308 309 309 309 310 311 312 312 312 312 312 311 311 312 310 310 309 309 309 308 308 306 307 304 303 305 306 305 305
306 307 307 308 308 308 307 307 308 309 310 311 311 310 309 309 310 310 310 310 311 309 309 308 306 307 302 300 302 304 304 303
306 306 306 307 306 305 305 305 305 306 308 308 309 309 309 309 309 309 311 309 309 308 306 304 306 307 302 299 300 304 304 304
305 306 304 304 302 302 301 302 302 302 305 305 307 308 307 307 306 307 308 307 306 304 304 305 307 307 302 298 299 303 303 303
304 304 303 302 301 300 299 299 299 300 300 301 304 305 305 305 305 307 306 308 305 305 306 309 306 308 303 299 300 306 304 304
302 301 301 300 300 298 297 296 296 296 297 299 301 303 304 306 307 306 307 306 307 307 307 309 309 308 311 301 298 308 308 305
301 300 298 299 298 297 294 293 294 295 296 296 298 301 304 304 305 305 306 307 307 306 305 306 308 310 307 305 299 299 307 308
301 301 300 300 298 296 292 293 292 292 293 294 297 301 304 304 304 303 302 304 305 305 305 305 303 305 308 302 299 299 299 300
300 299 299 298 298 296 294 293 292 291 290 292 295 298 299 303 303 303 302 302 302 304 304 303 300 299 301 302 302 304 303 305
299 297 297 296 296 295 293 293 293 290 289 290 291 294 296 299 303 302 302 305 302 300 302 299 296 294 296 294 293 296 302 302
296 296 294 294 294 293 293 293 293 292 288 288 288 292 294 295 296 299 298 296 295 293 294 294 294 293 292 294 295 294 291 291
294 293 292 292 292 292 292 293 293 293 292 288 287 290 290 292 290 292 292 299 297 296 293 293 292 291 292 294 295 297 298 299
294 292 291 292 291 291 293 293 294 294 294 291 289 288 288 287 289 289 288 292 294 298 298 293 292 291 292 293 294 303 311 314
293 291 290 291 290 291 293 293 294 295 295 293 293 291 287 287 288 289 288 288 290 292 297 295 292 291 291 292 294 298 303 309
290 288 290 290 289 292 293 291 293 294 295 289 292 295 294 293 289 287 287 287 286 286 288 290 289 291 290 291 295 296 302 306
292 290 290 290 289 292 293 291 293 293 294 294 290 294 294 294 293 292 289 289 287 286 286 287 285 290 288 288 290 292 295 299
292 291 291 291 290 292 293 290 291 293 293 293 293 293 293 293 293 294 293 291 290 289 286 287 286 290 288 288 288 288 292 297

GFSFLT2_sfc_thetae_108.txt.gz
Theta_e
312 312 312 312 313 313 313 314 314 315 316 317 320 320 320 319 317 318 317 314 312 312 311 310 310 310 309 308 307 307 307 307
312 312 312 312 312 311 311 311 313 314 314 315 316 318 318 317 316 316 314 313 312 311 311 310 309 309 309 308 307 307 308 308
311 310 311 310 310 310 310 311 312 313 312 313 315 317 316 315 314 314 314 312 311 310 309 308 309 309 308 307 306 306 305 305
309 308 308 308 308 308 309 308 309 310 310 311 313 314 313 313 313 313 312 312 312 311 310 309 308 308 304 303 305 305 306 306
307 307 307 307 307 307 305 305 307 307 307 310 310 311 310 311 311 311 310 310 310 308 309 308 307 306 302 301 303 305 305 305
306 306 305 305 305 304 303 303 304 304 305 307 308 307 308 309 309 308 308 307 306 307 307 307 305 306 302 300 301 304 305 305
305 305 304 303 301 301 300 300 301 301 301 301 302 303 305 306 305 304 307 306 307 307 307 307 307 307 303 300 301 306 306 306
304 303 302 301 300 300 298 297 298 296 297 298 299 301 302 303 304 305 305 306 306 307 307 308 308 309 304 300 301 306 305 306
303 302 300 299 299 298 296 296 294 295 295 296 297 298 301 302 305 304 306 306 306 305 307 309 309 308 307 300 299 303 304 304
302 301 300 300 299 296 294 293 294 294 293 294 295 298 300 302 303 303 304 305 305 304 304 305 308 307 302 300 297 297 298 299
301 300 300 300 299 297 293 293 294 293 291 292 294 295 298 299 301 303 302 304 302 301 301 302 301 301 300 297 295 295 297 298
299 298 297 296 297 296 295 294 294 294 291 290 291 292 295 298 301 301 300 301 301 300 301 300 297 296 295 295 295 297 301 304
298 296 295 294 295 295 294 294 294 293 292 290 289 290 294 296 297 297 295 298 296 297 300 297 293 291 292 291 292 294 299 301
295 294 294 293 294 293 293 294 294 294 292 291 289 289 291 292 293 293 292 292 293 293 293 292 292 291 291 291 292 293 295 296
293 292 292 293 293 292 293 293 294 295 293 292 291 289 289 288 289 291 289 291 293 292 292 291 290 289 290 291 292 292 296 303
293 292 291 292 291 291 292 293 295 295 296 292 294 293 289 288 288 289 290 288 287 289 292 291 289 289 290 290 291 295 300 302
292 291 291 290 290 291 292 292 293 294 294 293 295 296 295 292 292 290 290 290 288 288 289 289 289 290 290 290 290 292 292 296
290 289 289 288 289 292 291 291 292 294 295 290 292 294 294 294 295 294 292 291 290 288 287 287 288 289 287 287 288 288 290 292
291 290 290 289 289 292 291 291 291 293 293 294 290 293 293 292 293 293 292 293 292 289 287 287 286 289 286 286 286 286 287 289
292 291 290 290 291 292 291 290 290 293 292 291 292 290 291 291 291 292 291 291 291 291 290 288 286 289 288 286 286 286 287 288

GFSFLT2_sfc_thetae_111.txt.gz
Theta_e
306 305 305 306 306 306 306 306 306 308 309 308 309 309 309 308 308 308 308 306 306 306 306 306 306 306 305 305 305 306 304 306
305 305 305 305 306 306 305 305 307 307 308 307 307 308 308 307 307 307 306 306 306 305 305 305 306 306 306 306 307 306 303 305
305 303 304 303 303 304 305 305 305 305 306 306 306 308 307 306 306 305 307 306 306 307 306 307 307 306 307 303 303 303 302 302
304 304 304 303 303 303 303 302 303 304 303 303 306 306 306 305 306 306 304 304 304 305 306 307 304 305 303 303 304 302 302 302
302 302 302 300 300 300 298 299 301 301 301 303 304 303 303 303 304 303 302 302 303 306 305 303 302 303 302 301 303 304 305 304
300 300 299 298 298 298 300 298 298 299 298 298 299 299 299 301 301 300 301 305 304 304 304 305 304 305 302 300 301 304 304 305
299 299 298 297 298 299 298 298 298 296 295 295 296 297 298 299 299 301 303 304 304 304 305 306 305 307 302 300 300 302 302 302
297 297 297 297 296 297 296 295 293 292 293 294 295 296 296 298 300 301 303 303 304 305 305 304 304 305 302 298 298 299 297 299
297 296 293 293 293 292 293 292 290 293 293 293 294 296 296 299 300 301 301 303 304 304 302 301 301 302 300 296 296 296 296 295
297 295 293 293 292 290 289 290 293 293 290 291 293 293 295 297 298 300 302 302 302 299 298 298 300 298 298 296 294 293 294 294
295 294 292 292 292 290 287 288 293 293 291 290 291 290 293 295 297 297 296 298 296 295 296 296 294 295 295 294 292 293 294 296
293 292 290 289 291 290 289 290 292 293 289 290 290 290 291 294 294 295 291 292 292 293 295 290 291 291 291 292 292 293 296 301
291 290 289 289 290 289 289 290 290 290 290 290 289 290 290 291 293 293 291 291 291 290 291 289 288 288 289 290 290 292 296 299
289 288 288 289 289 288 289 289 289 290 289 289 289 289 289 289 288 290 292 291 291 290 291 289 289 290 290 290 290 291 292 293
288 288 289 288 288 288 288 289 290 290 289 290 289 289 289 288 289 289 288 291 291 290 290 289 289 289 289 289 289 290 291 294
289 288 288 288 288 287 288 290 291 290 290 292 289 290 288 288 288 288 289 289 287 288 289 289 289 289 289 289 289 290 290 292
289 287 287 288 288 287 289 290 290 290 290 290 290 290 288 289 288 287 287 288 288 288 287 287 288 289 288 288 288 288 287 288
286 285 286 287 288 289 289 289 288 290 290 290 290 289 288 288 288 287 287 286 286 287 286 285 287 287 286 286 286 286 286 287
289 287 287 287 287 290 289 288 287 289 288 289 288 288 287 287 287 286 286 286 286 285 284 287 285 286 285 285 285 286 286 287
288 287 286 287 289 289 290 288 286 289 288 287 287 285 286 285 285 286 284 285 285 285 285 286 285 286 286 285 286 286 287 287

GFSFLT2_sfc_thetae_114.txt.gz
Theta_e
305 306 305 304 304 304 304 305 304 305 306 306 306 306 307 306 306 306 307 305 304 304 305 304 305 305 304 304 303 304 304 304
303 303 303 304 303 303 303 303 303 303 304 303 303 304 306 305 305 305 304 304 304 304 304 305 305 305 305 305 304 302 302 303
302 301 301 300 301 301 301 301 301 301 301 301 302 303 304 303 303 303 303 303 303 304 304 304 303 304 305 304 305 305 304 303
302 302 300 299 299 298 299 298 299 300 300 300 300 300 301 301 301 301 301 301 302 302 303 302 302 304 303 303 305 304 305 304
300 298 297 296 296 297 295 296 297 297 296 298 298 298 298 298 300 300 299 299 300 301 300 304 302 302 301 301 302 304 304 303
297 297 295 295 295 295 296 296 294 294 294 294 296 295 296 297 297 298 298 299 300 300 302 305 302 304 302 300 300 301 301 301
296 296 295 293 294 294 294 292 292 292 292 292 293 294 294 295 296 299 298 298 301 301 301 302 301 302 300 297 297 297 297 299
296 296 293 292 291 292 291 290 289 289 291 291 292 294 296 296 298 299 301 301 302 304 302 301 301 300 297 296 296 294 294 296
295 293 290 290 290 290 288 288 288 292 290 290 292 294 293 296 297 298 300 300 298 299 298 298 299 296 295 294 294 292 293 293
294 291 290 289 289 288 287 286 289 294 289 289 290 292 292 295 296 296 295 295 295 293 294 293 293 293 294 293 292 292 293 294
293 291 290 289 288 287 285 286 289 290 289 288 289 291 292 294 293 290 289 291 290 291 292 288 288 292 292 292 291 292 294 296
289 289 288 287 287 288 287 288 289 289 288 289 291 290 291 292 293 293 289 289 288 289 289 287 286 290 290 290 290 291 294 296
288 287 286 286 287 287 286 287 287 287 288 290 290 290 290 290 290 292 290 291 289 288 289 288 287 287 288 289 289 290 292 293
286 286 286 286 287 286 286 287 287 286 287 287 287 288 289 290 289 290 291 291 290 289 289 289 289 289 289 289 289 290 290 291
286 286 286 286 286 285 286 287 288 288 288 288 286 289 288 288 288 289 288 291 291 290 289 289 289 288 288 288 289 289 290 290
286 286 286 287 287 285 287 289 289 288 287 290 288 288 289 288 286 286 286 287 287 287 289 288 288 288 288 288 288 289 288 289
286 285 286 287 287 286 288 288 287 288 288 287 287 288 288 288 286 284 284 285 285 286 286 287 287 288 288 288 288 287 286 286
284 283 285 285 286 288 288 287 287 288 288 288 288 286 286 286 285 284 284 284 283 283 284 283 284 285 283 284 285 286 286 286
286 285 285 285 286 289 289 287 287 287 286 285 286 285 284 284 284 282 282 283 283 282 283 283 283 282 281 282 283 284 285 285
285 284 284 286 288 288 287 287 287 286 285 284 284 283 283 282 282 281 281 281 281 281 281 283 283 281 281 280 281 282 283 285